Regional Weather Roundup
Issued by NWS Midland/Odessa, TX

Skip options and go directly to product.
Home | Oldest Version | Next Version | Current Version | All | Text Only | Save Text | Print | Product List | Glossary On

Skip product version selection by date and time.   
267
ASUS44 KMAF 241002
RWRMAF
MIDLAND AREA WEATHER ROUNDUP
NATIONAL WEATHER SERVICE MIDLAND TX
500 AM CDT FRI OCT 24 2014

...IN SOUTHWEST TEXAS AND SOUTHEAST NEW MEXICO...

CITY           SKY/WX    TMP DP  RH WIND       PRES   REMARKS
ALPINE         CLEAR     56  54  91 SW9       30.28S
ANDREWS        FAIR      58  57  97 SW7       30.15S
ARTESIA        NOT AVBL
BIG SPRING     CLEAR     61  59  92 SE5       30.16S
CARLSBAD       CLEAR     57  54  89 N5        30.14S
DRYDEN           N/A     61  59  93 NW3       30.12F
FORT STOCKTON  CLEAR     58  56  93 S6        30.14F
GUAD PASS      NOT AVBL
HOBBS          CLEAR     55  55 100 W5        30.17F FOG
MARFA          CLEAR     48  46  93 N5        30.26F
MIDLAND AIRPK  CLEAR     61  61  99 S3        30.15S
MIDLAND INTL   CLEAR     59  57  93 SW6       30.14S
ODESSA         CLEAR     61  59  93 SW8       30.15S FOG
PECOS          CLEAR     55  53  94 CALM      30.12S
PRESIDIO       FAIR      65  58  76 MISG      30.14F
SEMINOLE       CLEAR     56  56  97 W8        30.16S
SNYDER         FOG       56  56  99 SW5       30.13S VSB 1/4
WINK           CLEAR     60  32  34 E6        30.12S
$$
...OTHER STATIONS IN TEXAS...

CITY           SKY/WX    TMP DP  RH WIND       PRES   REMARKS
ABILENE        CLEAR     63  59  87 SW5       30.11S
AMARILLO       CLEAR     53  49  86 SW6       30.12F
AUSTIN         CLEAR     56  55  97 CALM      30.13R
BROWNSVILLE    CLEAR     67  66  97 NW6       30.05F
CORPUS CHRISTI PTCLDY    64  63  96 NW6       30.09R
DALLAS FTW     CLOUDY    64  56  75 S6        30.11R
DEL RIO        CLEAR     64  61  90 NE6       30.09S
EL PASO        CLEAR     57  52  83 SE6       30.18F
HOUSTON INT    CLEAR     55  52  89 N3        30.12S
LUBBOCK        PTCLDY    53  51  93 W6        30.13S FOG
SAN ANGELO     PTCLDY    55  54  96 SW5       30.12F FOG
SAN ANTONIO    CLEAR     62  57  83 NW3       30.12F
WACO           MOCLDY    64  55  72 S10       30.13R
WICHITA FALLS  NOT AVBL
$$
...OTHER LOCATIONS IN NEW MEXICO...

CITY           SKY/WX    TMP DP  RH WIND       PRES   REMARKS
ALAMAGORDO     NOT AVBL
ALBUQUERQUE    CLEAR     49  37  63 SE3       30.27F
CANNON AFB     CLEAR     57  52  82 W8        30.16F
CLOVIS         CLEAR     54  48  82 W5        30.19S
HOLLOMAN AFB   CLEAR     51  45  82 NW3       30.20R
ROSWELL        CLEAR     56  48  74 N3        30.15F
RUIDOSO        CLEAR     46  37  71 W7        30.36S
SANTA FE       CLEAR     46  30  53 N12       30.30F
TRUTH OR CONSE CLEAR     56  45  66 NW7       30.24R
TUCUMCARI      CLEAR     50  40  68 W9        30.13F
$$

USA.gov is the U.S. government's official web portal to all federal, state and local government web resources and services.